STARLINK-36102 (66849 NORAD) Tracking and Keplerian Element Data

This shows tracking and keplerian element data for the satellite.

Feedback or suggestion? Click here.




ElementValue
Catalog66849
NameSTARLINK-36102
Epoch Orbit260
Epoch Day354.25003472
Epoch Year2025
RAAN76.3875
Inclination43.0008
Eccentricity9.98E-05
Argument of Perigee263.7279
Mean Anonmoly224.3953
Mean Motion15.75419546
Decay Rate-0.01720835
L11 66849U 25281B 25354.25003472 -.01720835 00000+0 -12488-1 0 9994
L22 66849 43.0008 76.3875 0000998 263.7279 224.3953 15.75419546 2601



Live tracking and technical data element details for STARLINK-36102 (NORAD 66849). STARLINK-36102 can be tracked NOW for your location showing map with azimuth and elevation plus other details from your city location.







IsCatalogInMostPopularTable: catalog: 66849, numindb: 18
Update: records affected: 1



GetName: 66849 STARLINK-36102

Hit Count: updated at: Mon, 20 Apr 2026 10:42:24 GMT